This is the latest recevied weather packets stored in our database for station/object K5FEP. If no packets are shown the sender has not sent any weather packets the latest 10 day(s).
| Time | Temp. | Humidity | Pressure | Rain* | Wind** | Luminosity | Snow |
|---|---|---|---|---|---|---|---|
| 1788444486 | 31.11° C | 61% | 1017.5 hPa | 0 mm | - | 548 W/m² | - |
| 1788444181 | 31.11° C | 60% | 1017.4 hPa | 0 mm | - | 530 W/m² | - |
| 1788443877 | 30.56° C | 62% | 1017.3 hPa | 0 mm | - | 511 W/m² | - |
| 1788443572 | 30.56° C | 62% | 1017.3 hPa | 0 mm | - | 491 W/m² | - |
| 1788443271 | 30° C | 63% | 1017.3 hPa | 0 mm | - | 475 W/m² | - |
| 1788442967 | 30° C | 64% | 1017.3 hPa | 0 mm | - | 456 W/m² | - |
| 1788442664 | 28.89° C | 66% | 1017.4 hPa | 0 mm | - | 436 W/m² | - |
| 1788442361 | 28.89° C | 67% | 1017.4 hPa | 0 mm | - | 418 W/m² | - |
| 1788442060 | 28.89° C | 67% | 1017.6 hPa | 0 mm | - | 397 W/m² | - |
| 1788441755 | 28.33° C | 67% | 1017.5 hPa | 0 mm | - | 378 W/m² | - |
| 1788441451 | 27.78° C | 70% | 1017.3 hPa | 0 mm | - | 359 W/m² | - |
| 1788441150 | 27.78° C | 71% | 1017.6 hPa | 0 mm | - | 341 W/m² | - |
| 1788440845 | 27.22° C | 72% | 1017.6 hPa | 0 mm | - | 321 W/m² | - |
| 1788440540 | 26.67° C | 73% | 1017.5 hPa | 0 mm | - | 302 W/m² | - |
| 1788440238 | 26.67° C | 75% | 1017.5 hPa | 0 mm | - | 283 W/m² | - |
| 1788439933 | 26.67° C | 74% | 1017.4 hPa | 0 mm | - | 264 W/m² | - |
| 1788439632 | 26.11° C | 77% | 1017.6 hPa | 0 mm | - | 244 W/m² | - |
| 1788439328 | 25.56° C | 79% | 1017.6 hPa | 0 mm | - | 225 W/m² | - |
| 1788439027 | 25° C | 79% | 1017.6 hPa | 0 mm | - | 208 W/m² | - |
| 1788438726 | 25° C | 82% | 1017.7 hPa | 0 mm | - | 185 W/m² | - |
| 1788438425 | 24.44° C | 83% | 1017.6 hPa | 0 mm | - | 84 W/m² | - |
| 1788438120 | 23.89° C | 85% | 1017.6 hPa | 0 mm | - | 90 W/m² | - |
| 1788437819 | 23.89° C | 85% | 1017.8 hPa | 0 mm | - | 95 W/m² | - |
| 1788437515 | 23.89° C | 85% | 1017.7 hPa | 0 mm | - | 76 W/m² | - |
| 1788437214 | 23.89° C | 86% | 1017.7 hPa | 0 mm | - | 86 W/m² | - |
* Rain latest hour (hover to see other rain measurements)
** Current wind speed in m/s (hover to see current wind gust speed)